TimeCET,TemperatureF,Dew PointF,Humidity,Sea Level PressureIn,VisibilityMPH,Wind Direction,Wind SpeedMPH,Gust SpeedMPH,PrecipitationIn,Events,Conditions,WindDirDegrees,DateUTC
12:00 AM,48.2,46.4,93,29.83,6.2,WSW,13.8,-,N/A,,Mostly Cloudy,240,2012-12-23 23:00:00
12:30 AM,48.2,46.4,93,29.83,6.2,SW,19.6,-,N/A,,Scattered Clouds,230,2012-12-23 23:30:00
1:00 AM,49,46,86,29.84,12,WSW,13.4,,,,Partly Cloudy,240,2012-12-24 00:00:00
1:00 AM,48.2,46.4,93,29.83,6.2,SW,16.1,-,N/A,,Mostly Cloudy,230,2012-12-24 00:00:00
1:30 AM,48.2,46.4,93,29.80,6.2,SW,15.0,-,N/A,,Mostly Cloudy,220,2012-12-24 00:30:00
2:00 AM,50.0,46.4,87,29.80,6.2,WSW,15.0,-,N/A,,Mostly Cloudy,240,2012-12-24 01:00:00
2:30 AM,50.0,46.4,87,29.80,6.2,WSW,18.4,-,N/A,,Mostly Cloudy,240,2012-12-24 01:30:00
3:00 AM,50.0,46.4,87,29.80,6.2,SW,20.7,-,N/A,,Scattered Clouds,230,2012-12-24 02:00:00
3:30 AM,50.0,46.4,87,29.80,6.2,SW,20.7,-,N/A,,Mostly Cloudy,230,2012-12-24 02:30:00
4:00 AM,50.0,46.4,87,29.80,6.2,SW,24.2,-,N/A,,Mostly Cloudy,230,2012-12-24 03:00:00
4:30 AM,50.0,44.6,82,29.80,6.2,WSW,20.7,-,N/A,,Mostly Cloudy,240,2012-12-24 03:30:00
5:00 AM,50.0,44.6,82,29.80,6.2,WSW,17.3,-,N/A,,Mostly Cloudy,240,2012-12-24 04:00:00
5:30 AM,50.0,44.6,82,29.83,6.2,WSW,16.1,-,N/A,,Overcast,240,2012-12-24 04:30:00
5:53 AM,48.2,44.6,87,29.83,6.2,NNW,9.2,-,N/A,,Overcast,340,2012-12-24 04:53:00
6:00 AM,48.2,42.8,82,29.83,6.2,NNW,9.2,-,N/A,,Overcast,340,2012-12-24 05:00:00
6:30 AM,41.0,39.2,93,29.83,6.2,East,2.3,-,N/A,,Overcast,80,2012-12-24 05:30:00
7:00 AM,42,40,90,29.88,9,ENE,2.2,,,,Overcast,70,2012-12-24 06:00:00
7:00 AM,42.8,41.0,93,29.83,6.2,East,1.2,-,N/A,,Overcast,80,2012-12-24 06:00:00
7:30 AM,48.2,42.8,82,29.83,6.2,Variable,1.2,-,N/A,,Mostly Cloudy,0,2012-12-24 06:30:00
8:00 AM,46.4,42.8,87,29.86,6.2,Variable,2.3,-,N/A,,Mostly Cloudy,0,2012-12-24 07:00:00
8:30 AM,44.6,41.0,87,29.86,6.2,Calm,Calm,-,N/A,,Scattered Clouds,0,2012-12-24 07:30:00
9:00 AM,44.6,41.0,87,29.86,6.2,SW,3.5,-,N/A,,Scattered Clouds,230,2012-12-24 08:00:00
9:30 AM,44.6,42.8,93,29.86,6.2,West,4.6,-,N/A,,Scattered Clouds,260,2012-12-24 08:30:00
10:00 AM,46.4,42.8,87,29.86,6.2,WSW,3.5,-,N/A,,Mostly Cloudy,240,2012-12-24 09:00:00
10:30 AM,48.2,42.8,82,29.89,6.2,SSW,4.6,-,N/A,,Scattered Clouds,210,2012-12-24 09:30:00
11:00 AM,48.2,42.8,82,29.86,6.2,SSW,6.9,-,N/A,,Partly Cloudy,210,2012-12-24 10:00:00
11:30 AM,50.0,44.6,82,29.86,6.2,SSW,12.7,-,N/A,,Partly Cloudy,210,2012-12-24 10:30:00
12:00 PM,50.0,44.6,82,29.86,6.2,SSW,9.2,-,N/A,,Partly Cloudy,200,2012-12-24 11:00:00
12:30 PM,51.8,44.6,76,29.86,6.2,SSW,10.4,-,N/A,,Partly Cloudy,210,2012-12-24 11:30:00
1:00 PM,52,45,70,29.86,19,SSW,6.7,,,,Scattered Clouds,210,2012-12-24 12:00:00
1:00 PM,51.8,44.6,76,29.83,-9999.0,SSW,9.2,-,N/A,,Clear,200,2012-12-24 12:00:00
1:30 PM,51.8,44.6,76,29.83,-9999.0,SSW,11.5,-,N/A,,Clear,210,2012-12-24 12:30:00
2:00 PM,51.8,44.6,76,29.83,-9999.0,SW,9.2,-,N/A,,Clear,220,2012-12-24 13:00:00
2:30 PM,51.8,44.6,76,29.83,-9999.0,SW,8.1,-,N/A,,Clear,220,2012-12-24 13:30:00
3:00 PM,50.0,44.6,82,29.83,-9999.0,SSW,8.1,-,N/A,,Clear,210,2012-12-24 14:00:00
3:30 PM,50.0,42.8,76,29.83,-9999.0,SSW,5.8,-,N/A,,Clear,200,2012-12-24 14:30:00
4:00 PM,48.2,42.8,82,29.83,-9999.0,South,5.8,-,N/A,,Clear,190,2012-12-24 15:00:00
4:30 PM,46.4,41.0,81,29.83,-9999.0,SSW,8.1,-,N/A,,Clear,200,2012-12-24 15:30:00
5:00 PM,44.6,41.0,87,29.83,-9999.0,South,9.2,-,N/A,,Clear,190,2012-12-24 16:00:00
5:30 PM,48.2,41.0,76,29.83,-9999.0,South,6.9,-,N/A,,Clear,180,2012-12-24 16:30:00
6:00 PM,46.4,41.0,81,29.83,-9999.0,SSE,5.8,-,N/A,,Clear,150,2012-12-24 17:00:00
6:30 PM,46.4,41.0,81,29.80,-9999.0,SSE,4.6,-,N/A,,Clear,150,2012-12-24 17:30:00
7:00 PM,46,41,77,29.83,12,SSE,6.7,,,,Scattered Clouds,150,2012-12-24 18:00:00
7:00 PM,46.4,41.0,81,29.80,-9999.0,SE,6.9,-,N/A,,Clear,140,2012-12-24 18:00:00
7:30 PM,44.6,39.2,81,29.80,-9999.0,SE,5.8,-,N/A,,Clear,140,2012-12-24 18:30:00
8:00 PM,44.6,39.2,81,29.77,-9999.0,SSE,8.1,-,N/A,,Clear,150,2012-12-24 19:00:00
8:30 PM,42.8,39.2,87,29.80,-9999.0,SSE,4.6,-,N/A,,Clear,150,2012-12-24 19:30:00
9:00 PM,39.2,33.8,81,29.80,6.2,North,3.5,-,N/A,,Unknown,360,2012-12-24 20:00:00
9:19 PM,32.0,30.2,93,29.77,2.8,Variable,1.2,-,N/A,,Mist,0,2012-12-24 20:19:00
9:22 PM,32.0,30.2,93,29.77,1.9,Variable,2.3,-,N/A,,Partly Cloudy,0,2012-12-24 20:22:00
9:30 PM,32.0,30.2,93,29.77,1.1,Variable,2.3,-,N/A,Fog,Partly Cloudy,0,2012-12-24 20:30:00
9:37 PM,30.2,30.2,100,29.77,-9999.0,NNW,2.3,-,N/A,,Partly Cloudy,340,2012-12-24 20:37:00
10:00 PM,30.2,28.4,93,29.77,1.1,SE,2.3,-,N/A,Fog,Partly Cloudy,140,2012-12-24 21:00:00
10:07 PM,30.2,28.4,93,29.77,1.9,Calm,Calm,-,N/A,,Mist,0,2012-12-24 21:07:00
10:18 PM,30.2,28.4,93,29.77,3.1,South,2.3,-,N/A,,Mist,180,2012-12-24 21:18:00
10:30 PM,35.6,33.8,93,29.77,3.7,Variable,2.3,-,N/A,,Unknown,0,2012-12-24 21:30:00
11:00 PM,30.2,30.2,100,29.77,3.7,WNW,2.3,-,N/A,,Unknown,300,2012-12-24 22:00:00
11:30 PM,33.8,32.0,93,29.77,4.3,Variable,2.3,-,N/A,,Unknown,0,2012-12-24 22:30:00